This is the latest recevied weather packets stored in our database for station/object DK4MDA-13. If no packets are shown the sender has not sent any weather packets the latest 10 day(s).
| Time | Temp. | Humidity | Pressure | Rain* | Wind** | Luminosity | Snow |
|---|---|---|---|---|---|---|---|
| 1777446739 | 9.44° C | 49% | 1029.5 hPa | 0 mm | - | - | - |
| 1777446439 | 9.44° C | 51% | 1029.6 hPa | 0 mm | - | - | - |
| 1777446139 | 9.44° C | 52% | 1029.7 hPa | 0 mm | - | - | - |
| 1777445839 | 8.89° C | 53% | 1029.5 hPa | 0 mm | - | - | - |
| 1777445539 | 8.89° C | 54% | 1029.5 hPa | 0 mm | - | - | - |
| 1777445239 | 8.89° C | 55% | 1029.6 hPa | 0 mm | - | - | - |
| 1777444939 | 8.33° C | 55% | 1029.6 hPa | 0 mm | - | - | - |
| 1777444639 | 8.33° C | 55% | 1029.4 hPa | 0 mm | - | - | - |
| 1777444339 | 8.33° C | 56% | 1029.3 hPa | 0 mm | - | - | - |
| 1777444039 | 7.78° C | 57% | 1029.2 hPa | 0 mm | - | - | - |
| 1777443739 | 7.78° C | 57% | 1029.1 hPa | 0 mm | - | - | - |
| 1777443439 | 7.78° C | 58% | 1029 hPa | 0 mm | - | - | - |
| 1777443139 | 7.22° C | 58% | 1029.1 hPa | 0 mm | - | - | - |
| 1777442839 | 7.22° C | 59% | 1029 hPa | 0 mm | - | - | - |
| 1777442539 | 7.22° C | 58% | 1029 hPa | 0 mm | - | - | - |
| 1777442239 | 6.67° C | 60% | 1028.9 hPa | 0 mm | - | - | - |
| 1777441939 | 6.67° C | 60% | 1028.9 hPa | 0 mm | - | - | - |
| 1777441639 | 6.67° C | 61% | 1028.9 hPa | 0 mm | - | - | - |
| 1777441339 | 6.11° C | 63% | 1028.8 hPa | 0 mm | - | - | - |
| 1777441039 | 5.56° C | 63% | 1028.7 hPa | 0 mm | - | - | - |
| 1777440739 | 5.56° C | 64% | 1028.6 hPa | 0 mm | - | - | - |
| 1777440439 | 5° C | 65% | 1028.6 hPa | 0 mm | - | - | - |
| 1777440139 | 5° C | 66% | 1028.5 hPa | 0 mm | - | - | - |
| 1777439839 | 4.44° C | 67% | 1028.5 hPa | 0 mm | - | - | - |
| 1777439539 | 4.44° C | 66% | 1028.2 hPa | 0 mm | - | - | - |
* Rain latest hour (hover to see other rain measurements)
** Current wind speed in m/s (hover to see current wind gust speed)